Caldwell, NJ

1:19 AM EDT on September 18, 2019 (GMT -0400)
Essex County

Weather History for KCDW - May, 2019

Change the Weather History Date:

Monday, May 27, 2019

  Actual Average Record
Temperature  
Mean Temperature 72 °F -  
Max Temperature 82 °F 73 °F 94 °F (1965)
Min Temperature 61 °F 49 °F 35 °F (1967)
Cooling Degree Days 6    
Growing Degree Days 22 (Base 50)    
Moisture  
Dew Point 52 °F    
Average Humidity 49    
Maximum Humidity 72    
Minimum Humidity 33    
Precipitation  
Precipitation 0.00 in - - ()
Sea Level Pressure  
Sea Level Pressure 29.94 in    
Wind  
Wind Speed 4 mph (NE)    
Max Wind Speed 10 mph    
Max Gust Speed 16 mph    
Visibility 10 miles    
Events      
Averages and records for this station are not official NWS values.
T = Trace of Precipitation, MM = Missing Value Source: NWS Daily Summary

Daily Weather History Graph

Daily Weather History Graph

Search for Another Location

Airport or City:

Astronomy

May. 27, 2019 Rise Set
Actual Time 5:30 AM EDT 8:18 PM EDT
Civil Twilight 4:58 AM EDT 8:50 PM EDT
Nautical Twilight 4:17 AM EDT 9:31 PM EDT
Astronomical Twilight 3:30 AM EDT 10:18 PM EDT
Moon 2:17 AM EDT (5/27) 1:25 PM EDT (5/27)
Length of Visible Light 15h 52m
Length of Day
14h 48m
Last Quarter, 41% of the Moon is Illuminated
May 27
Last Quarter
Jun 3
New
Jun 10
First Quarter
Jun 17
Full
Jun 25
Last Quarter

Hourly Weather History & Observations

Time (EDT) Temp. Dew Point Humidity Pressure Visibility Wind Dir Wind Speed Gust Speed Precip Events Conditions
12:53 AM 73.0 °F 57.9 °F 59% 29.91 in 10.0 mi Variable 3.5 mph - N/A   Clear
1:53 AM 72.0 °F 53.1 °F 51% 29.90 in 10.0 mi NW 6.9 mph - N/A   Clear
2:53 AM 70.0 °F 52.0 °F 53% 29.90 in 10.0 mi Variable 3.5 mph - N/A   Clear
3:53 AM 68.0 °F 51.1 °F 55% 29.91 in 10.0 mi Variable 3.5 mph - N/A   Clear
4:53 AM 64.9 °F 51.1 °F 61% 29.92 in 10.0 mi Calm Calm - N/A   Clear
5:53 AM 61.0 °F 52.0 °F 72% 29.94 in 10.0 mi ENE 3.5 mph - N/A   Clear
6:53 AM 64.9 °F 54.0 °F 68% 29.96 in 10.0 mi ENE 3.5 mph - N/A   Clear
7:53 AM 69.1 °F 54.0 °F 58% 29.98 in 10.0 mi Variable 3.5 mph - N/A   Clear
8:53 AM 71.1 °F 54.0 °F 55% 29.99 in 10.0 mi Variable 6.9 mph - N/A   Clear
9:53 AM 73.9 °F 54.0 °F 50% 29.99 in 10.0 mi Variable 5.8 mph - N/A   Clear
10:53 AM 75.0 °F 52.0 °F 44% 29.97 in 10.0 mi Variable 5.8 mph - N/A   Clear
11:53 AM 78.1 °F 50.0 °F 37% 29.95 in 10.0 mi NNW 8.1 mph - N/A   Clear
12:53 PM 78.1 °F 48.9 °F 36% 29.95 in 10.0 mi Variable 5.8 mph - N/A   Clear
1:53 PM 80.1 °F 48.9 °F 34% 29.95 in 10.0 mi ENE 10.4 mph 16.1 mph N/A   Clear
2:53 PM 81.0 °F 50.0 °F 34% 29.93 in 10.0 mi Variable 4.6 mph - N/A   Scattered Clouds
3:53 PM 82.0 °F 51.1 °F 34% 29.92 in 10.0 mi Variable 3.5 mph - N/A   Mostly Cloudy
4:53 PM 81.0 °F 51.1 °F 35% 29.91 in 10.0 mi ENE 4.6 mph - N/A   Scattered Clouds
5:53 PM 81.0 °F 48.9 °F 33% 29.89 in 10.0 mi Calm Calm - N/A   Clear
6:53 PM 81.0 °F 48.9 °F 33% 29.90 in 10.0 mi Calm Calm - N/A   Clear
7:53 PM 78.1 °F 51.1 °F 39% 29.91 in 10.0 mi Calm Calm - N/A   Clear
8:53 PM 72.0 °F 52.0 °F 49% 29.93 in 10.0 mi Calm Calm - N/A   Clear
9:53 PM 70.0 °F 54.0 °F 57% 29.94 in 10.0 mi Calm Calm - N/A   Clear
10:53 PM 66.0 °F 54.0 °F 65% 29.95 in 10.0 mi Calm Calm - N/A   Clear
11:53 PM 64.9 °F 54.0 °F 68% 29.94 in 10.0 mi Calm Calm - N/A   Clear